Year,Month,Day,Hour,Minute,Value (Times are PST for temperature in C)
2010,07,06,00,00,14.20
2010,07,06,00,01,14.20
2010,07,06,00,02,14.20
2010,07,06,00,03,14.10
2010,07,06,00,04,14.10
2010,07,06,00,05,14.00
2010,07,06,00,06,14.00
2010,07,06,00,07,14.00
2010,07,06,00,08,13.90
2010,07,06,00,09,13.90
2010,07,06,00,10,13.90
2010,07,06,00,11,13.80
2010,07,06,00,12,13.80
2010,07,06,00,13,13.70
2010,07,06,00,14,13.70
2010,07,06,00,15,13.70
2010,07,06,00,16,13.70
2010,07,06,00,17,13.60
2010,07,06,00,18,13.60
2010,07,06,00,19,13.50
2010,07,06,00,20,13.50
2010,07,06,00,21,13.50
2010,07,06,00,22,13.40
2010,07,06,00,23,13.40
2010,07,06,00,24,13.30
2010,07,06,00,25,13.30
2010,07,06,00,26,13.30
2010,07,06,00,27,13.30
2010,07,06,00,28,13.20
2010,07,06,00,29,13.20
2010,07,06,00,30,13.10
2010,07,06,00,31,13.10
2010,07,06,00,32,13.00
2010,07,06,00,33,13.00
2010,07,06,00,34,12.90
2010,07,06,00,35,12.90
2010,07,06,00,36,12.90
2010,07,06,00,37,12.80
2010,07,06,00,38,12.80
2010,07,06,00,39,12.80
2010,07,06,00,40,12.80
2010,07,06,00,41,12.70
2010,07,06,00,42,12.70
2010,07,06,00,43,12.70
2010,07,06,00,44,12.70
2010,07,06,00,45,12.60
2010,07,06,00,46,12.60
2010,07,06,00,47,12.60
2010,07,06,00,48,12.60
2010,07,06,00,49,12.50
2010,07,06,00,50,12.50
2010,07,06,00,51,12.50
2010,07,06,00,52,12.50
2010,07,06,00,53,12.50
2010,07,06,00,54,12.50
2010,07,06,00,55,12.40
2010,07,06,00,56,12.40
2010,07,06,00,57,12.40
2010,07,06,00,58,12.40
2010,07,06,00,59,12.40
2010,07,06,01,00,12.30
2010,07,06,01,01,12.30
2010,07,06,01,02,12.30
2010,07,06,01,03,12.30
2010,07,06,01,04,12.30
2010,07,06,01,05,12.30
2010,07,06,01,06,12.30
2010,07,06,01,07,12.30
2010,07,06,01,08,12.30
2010,07,06,01,09,12.30
2010,07,06,01,10,12.20
2010,07,06,01,11,12.20
2010,07,06,01,12,12.20
2010,07,06,01,13,12.20
2010,07,06,01,14,12.20
2010,07,06,01,15,12.20
2010,07,06,01,16,12.20
2010,07,06,01,17,12.20
2010,07,06,01,18,12.20
2010,07,06,01,19,12.10
2010,07,06,01,20,12.10
2010,07,06,01,21,12.10
2010,07,06,01,22,12.10
2010,07,06,01,23,12.10
2010,07,06,01,24,12.10
2010,07,06,01,25,12.10
2010,07,06,01,26,12.10
2010,07,06,01,27,12.10
2010,07,06,01,28,12.10
2010,07,06,01,29,12.10
2010,07,06,01,30,12.10
2010,07,06,01,31,12.10
2010,07,06,01,32,12.10
2010,07,06,01,33,12.10
2010,07,06,01,34,12.00
2010,07,06,01,35,12.00
2010,07,06,01,36,12.00
2010,07,06,01,37,12.00
2010,07,06,01,38,12.00
2010,07,06,01,39,12.00
2010,07,06,01,40,12.00
2010,07,06,01,41,12.00
2010,07,06,01,42,12.00
2010,07,06,01,43,12.00
2010,07,06,01,44,12.00
2010,07,06,01,45,12.00
2010,07,06,01,46,12.00
2010,07,06,01,47,12.00
2010,07,06,01,48,12.00
2010,07,06,01,49,12.00
2010,07,06,01,50,12.00
2010,07,06,01,51,12.00
2010,07,06,01,52,12.00
2010,07,06,01,53,12.00
2010,07,06,01,54,12.00
2010,07,06,01,55,12.00
2010,07,06,01,56,11.90
2010,07,06,01,57,11.90
2010,07,06,01,58,11.90
2010,07,06,01,59,11.90
2010,07,06,02,00,11.90
2010,07,06,02,01,11.90
2010,07,06,02,02,11.90
2010,07,06,02,03,11.90
2010,07,06,02,04,11.80
2010,07,06,02,05,11.80
2010,07,06,02,06,11.80
2010,07,06,02,07,11.80
2010,07,06,02,08,11.80
2010,07,06,02,09,11.80
2010,07,06,02,10,11.80
2010,07,06,02,11,11.80
2010,07,06,02,12,11.80
2010,07,06,02,13,11.80
2010,07,06,02,14,11.90
2010,07,06,02,15,11.90
2010,07,06,02,16,11.90
2010,07,06,02,17,11.90
2010,07,06,02,18,11.90
2010,07,06,02,19,11.80
2010,07,06,02,20,11.80
2010,07,06,02,21,11.80
2010,07,06,02,22,11.80
2010,07,06,02,23,11.80
2010,07,06,02,24,11.80
2010,07,06,02,25,11.80
2010,07,06,02,26,11.80
2010,07,06,02,27,11.80
2010,07,06,02,28,11.80
2010,07,06,02,29,11.70
2010,07,06,02,30,11.70
2010,07,06,02,31,11.70
2010,07,06,02,32,11.70
2010,07,06,02,33,11.70
2010,07,06,02,34,11.60
2010,07,06,02,35,11.60
2010,07,06,02,36,11.60
2010,07,06,02,37,11.60
2010,07,06,02,38,11.60
2010,07,06,02,39,11.60
2010,07,06,02,40,11.60
2010,07,06,02,41,11.60
2010,07,06,02,42,11.60
2010,07,06,02,43,11.60
2010,07,06,02,44,11.60
2010,07,06,02,45,11.60
2010,07,06,02,46,11.60
2010,07,06,02,47,11.60
2010,07,06,02,48,11.60
2010,07,06,02,49,11.60
2010,07,06,02,50,11.60
2010,07,06,02,51,11.60
2010,07,06,02,52,11.60
2010,07,06,02,53,11.60
2010,07,06,02,54,11.60
2010,07,06,02,55,11.60
2010,07,06,02,56,11.60
2010,07,06,02,57,11.60
2010,07,06,02,58,11.60
2010,07,06,02,59,11.60
2010,07,06,03,00,11.60
2010,07,06,03,01,11.60
2010,07,06,03,02,11.60
2010,07,06,03,03,11.60
2010,07,06,03,04,11.60
2010,07,06,03,05,11.60
2010,07,06,03,06,11.60
2010,07,06,03,07,11.60
2010,07,06,03,08,11.60
2010,07,06,03,09,11.60
2010,07,06,03,10,11.60
2010,07,06,03,11,11.60
2010,07,06,03,12,11.60
2010,07,06,03,13,11.60
2010,07,06,03,14,11.60
2010,07,06,03,15,11.60
2010,07,06,03,16,11.60
2010,07,06,03,17,11.60
2010,07,06,03,18,11.60
2010,07,06,03,19,11.60
2010,07,06,03,20,11.60
2010,07,06,03,21,11.60
2010,07,06,03,22,11.60
2010,07,06,03,23,11.60
2010,07,06,03,24,11.60
2010,07,06,03,25,11.60
2010,07,06,03,26,11.60
2010,07,06,03,27,11.60
2010,07,06,03,28,11.60
2010,07,06,03,29,11.40
2010,07,06,03,30,11.40
2010,07,06,03,31,11.40
2010,07,06,03,32,11.40
2010,07,06,03,33,11.40
2010,07,06,03,34,11.40
2010,07,06,03,35,11.40
2010,07,06,03,36,11.40
2010,07,06,03,37,11.40
2010,07,06,03,38,11.40
2010,07,06,03,39,11.40
2010,07,06,03,40,11.40
2010,07,06,03,41,11.40
2010,07,06,03,42,11.40
2010,07,06,03,43,11.40
2010,07,06,03,44,11.40
2010,07,06,03,45,11.30
2010,07,06,03,46,11.30
2010,07,06,03,47,11.30
2010,07,06,03,48,11.30
2010,07,06,03,49,11.30
2010,07,06,03,50,11.40
2010,07,06,03,51,11.40
2010,07,06,03,52,11.40
2010,07,06,03,53,11.40
2010,07,06,03,54,11.40
2010,07,06,03,55,11.40
2010,07,06,03,56,11.40
2010,07,06,03,57,11.40
2010,07,06,03,58,11.40
2010,07,06,03,59,11.40
2010,07,06,04,00,11.40
2010,07,06,04,01,11.40
2010,07,06,04,02,11.30
2010,07,06,04,03,11.30
2010,07,06,04,04,11.30
2010,07,06,04,05,11.30
2010,07,06,04,06,11.30
2010,07,06,04,07,11.30
2010,07,06,04,08,11.30
2010,07,06,04,09,11.30
2010,07,06,04,10,11.30
2010,07,06,04,11,11.30
2010,07,06,04,12,11.30
2010,07,06,04,13,11.30
2010,07,06,04,14,11.30
2010,07,06,04,15,11.20
2010,07,06,04,16,11.20
2010,07,06,04,17,11.20
2010,07,06,04,18,11.20
2010,07,06,04,19,11.20
2010,07,06,04,20,11.10
2010,07,06,04,21,11.10
2010,07,06,04,22,11.10
2010,07,06,04,23,11.10
2010,07,06,04,24,11.10
2010,07,06,04,25,11.10
2010,07,06,04,26,11.10
2010,07,06,04,27,11.10
2010,07,06,04,28,11.00
2010,07,06,04,29,10.90
2010,07,06,04,30,10.90
2010,07,06,04,31,10.90
2010,07,06,04,32,10.90
2010,07,06,04,33,10.90
2010,07,06,04,34,10.90
2010,07,06,04,35,10.90
2010,07,06,04,36,10.90
2010,07,06,04,37,10.90
2010,07,06,04,38,10.90
2010,07,06,04,39,10.90
2010,07,06,04,40,10.90
2010,07,06,04,41,10.90
2010,07,06,04,42,10.90
2010,07,06,04,43,10.90
2010,07,06,04,44,10.90
2010,07,06,04,45,10.90
2010,07,06,04,46,10.90
2010,07,06,04,47,10.90
2010,07,06,04,48,10.90
2010,07,06,04,49,10.90
2010,07,06,04,50,10.80
2010,07,06,04,51,10.80
2010,07,06,04,52,10.80
2010,07,06,04,53,10.80
2010,07,06,04,54,10.80
2010,07,06,04,55,10.80
2010,07,06,04,56,10.80
2010,07,06,04,57,10.80
2010,07,06,04,58,10.80
2010,07,06,04,59,10.80
2010,07,06,05,00,10.80
2010,07,06,05,01,10.80
2010,07,06,05,02,10.80
2010,07,06,05,03,10.80
2010,07,06,05,04,10.80
2010,07,06,05,05,10.80
2010,07,06,05,06,10.80
2010,07,06,05,07,10.80
2010,07,06,05,08,10.80
2010,07,06,05,09,10.90
2010,07,06,05,10,10.90
2010,07,06,05,11,10.90
2010,07,06,05,12,10.90
2010,07,06,05,13,10.90
2010,07,06,05,14,10.90
2010,07,06,05,15,10.90
2010,07,06,05,16,10.90
2010,07,06,05,17,10.90
2010,07,06,05,18,10.90
2010,07,06,05,19,10.90
2010,07,06,05,20,10.90
2010,07,06,05,21,10.90
2010,07,06,05,22,10.90
2010,07,06,05,23,10.90
2010,07,06,05,24,10.90
2010,07,06,05,25,10.90
2010,07,06,05,26,10.90
2010,07,06,05,27,10.90
2010,07,06,05,28,10.90
2010,07,06,05,29,10.90
2010,07,06,05,30,10.90
2010,07,06,05,31,10.90
2010,07,06,05,32,10.90
2010,07,06,05,33,10.90
2010,07,06,05,34,10.90
2010,07,06,05,35,10.90
2010,07,06,05,36,10.90
2010,07,06,05,37,10.90
2010,07,06,05,38,10.90
2010,07,06,05,39,10.80
2010,07,06,05,40,10.80
2010,07,06,05,41,10.80
2010,07,06,05,42,10.80
2010,07,06,05,43,10.80
2010,07,06,05,44,10.80
2010,07,06,05,45,10.70
2010,07,06,05,46,10.70
2010,07,06,05,47,10.70
2010,07,06,05,48,10.70
2010,07,06,05,49,10.70
2010,07,06,05,50,10.60
2010,07,06,05,51,10.60
2010,07,06,05,52,10.60
2010,07,06,05,53,10.60
2010,07,06,05,54,10.60
2010,07,06,05,55,10.60
2010,07,06,05,56,10.60
2010,07,06,05,57,10.60
2010,07,06,05,58,10.60
2010,07,06,05,59,10.70
2010,07,06,06,00,10.70
2010,07,06,06,01,10.70
2010,07,06,06,02,10.70
2010,07,06,06,03,10.70
2010,07,06,06,04,10.80
2010,07,06,06,05,10.80
2010,07,06,06,06,10.90
2010,07,06,06,07,10.90
2010,07,06,06,08,10.90
2010,07,06,06,09,10.90
2010,07,06,06,10,10.90
2010,07,06,06,11,10.90
2010,07,06,06,12,10.90
2010,07,06,06,13,10.90
2010,07,06,06,14,10.90
2010,07,06,06,15,10.90
2010,07,06,06,16,10.90
2010,07,06,06,17,10.90
2010,07,06,06,18,10.90
2010,07,06,06,19,10.90
2010,07,06,06,20,10.90
2010,07,06,06,21,10.90
2010,07,06,06,22,10.90
2010,07,06,06,23,10.90
2010,07,06,06,24,10.90
2010,07,06,06,25,10.90
2010,07,06,06,26,10.90
2010,07,06,06,27,10.90
2010,07,06,06,28,10.90
2010,07,06,06,29,10.90
2010,07,06,06,30,10.90
2010,07,06,06,31,10.90
2010,07,06,06,32,10.90
2010,07,06,06,33,11.10
2010,07,06,06,34,11.10
2010,07,06,06,35,11.10
2010,07,06,06,36,11.10
2010,07,06,06,37,11.20
2010,07,06,06,38,11.20
2010,07,06,06,39,11.30
2010,07,06,06,40,11.40
2010,07,06,06,41,11.40
2010,07,06,06,42,11.50
2010,07,06,06,43,11.60
2010,07,06,06,44,11.60
2010,07,06,06,45,11.60
2010,07,06,06,46,11.60
2010,07,06,06,47,11.60
2010,07,06,06,48,11.70
2010,07,06,06,49,11.70
2010,07,06,06,50,11.80
2010,07,06,06,51,11.80
2010,07,06,06,52,11.80
2010,07,06,06,53,11.80
2010,07,06,06,54,11.90
2010,07,06,06,55,11.90
2010,07,06,06,56,11.90
2010,07,06,06,57,11.90
2010,07,06,06,58,11.90
2010,07,06,06,59,12.00
2010,07,06,07,00,12.00
2010,07,06,07,01,12.00
2010,07,06,07,02,12.10
2010,07,06,07,03,12.10
2010,07,06,07,04,12.20
2010,07,06,07,05,12.20
2010,07,06,07,06,12.30
2010,07,06,07,07,12.30
2010,07,06,07,08,12.30
2010,07,06,07,09,12.40
2010,07,06,07,10,12.50
2010,07,06,07,11,12.60
2010,07,06,07,12,12.60
2010,07,06,07,13,12.70
2010,07,06,07,14,12.80
2010,07,06,07,15,12.90
2010,07,06,07,16,13.00
2010,07,06,07,17,13.00
2010,07,06,07,18,13.10
2010,07,06,07,19,13.20
2010,07,06,07,20,13.30
2010,07,06,07,21,13.30
2010,07,06,07,22,13.40
2010,07,06,07,23,13.50
2010,07,06,07,24,13.50
2010,07,06,07,25,13.60
2010,07,06,07,26,13.60
2010,07,06,07,27,13.60
2010,07,06,07,28,13.70
2010,07,06,07,29,13.70
2010,07,06,07,30,13.70
2010,07,06,07,31,13.70
2010,07,06,07,32,13.70
2010,07,06,07,33,13.70
2010,07,06,07,34,13.80
2010,07,06,07,35,13.90
2010,07,06,07,36,13.90
2010,07,06,07,37,14.00
2010,07,06,07,38,14.10
2010,07,06,07,39,14.10
2010,07,06,07,40,14.20
2010,07,06,07,41,14.20
2010,07,06,07,42,14.30
2010,07,06,07,43,14.40
2010,07,06,07,44,14.50
2010,07,06,07,45,14.60
2010,07,06,07,46,14.60
2010,07,06,07,47,14.80
2010,07,06,07,48,14.90
2010,07,06,07,49,15.00
2010,07,06,07,50,15.10
2010,07,06,07,51,15.20
2010,07,06,07,52,15.30
2010,07,06,07,53,15.40
2010,07,06,07,54,15.50
2010,07,06,07,55,15.60
2010,07,06,07,56,15.70
2010,07,06,07,57,15.70
2010,07,06,07,58,15.80
2010,07,06,07,59,15.80
2010,07,06,08,00,15.90
2010,07,06,08,01,15.90
2010,07,06,08,02,15.90
2010,07,06,08,03,16.10
2010,07,06,08,04,16.10
2010,07,06,08,05,16.10
2010,07,06,08,06,16.10
2010,07,06,08,07,16.10
2010,07,06,08,08,16.10
2010,07,06,08,09,16.20
2010,07,06,08,10,16.20
2010,07,06,08,11,16.20
2010,07,06,08,12,16.30
2010,07,06,08,13,16.30
2010,07,06,08,14,16.40
2010,07,06,08,15,16.40
2010,07,06,08,16,16.40
2010,07,06,08,17,16.40
2010,07,06,08,18,16.50
2010,07,06,08,19,16.60
2010,07,06,08,20,16.60
2010,07,06,08,21,16.70
2010,07,06,08,22,16.70
2010,07,06,08,23,16.70
2010,07,06,08,24,16.80
2010,07,06,08,25,16.80
2010,07,06,08,26,16.80
2010,07,06,08,27,16.90
2010,07,06,08,28,16.90
2010,07,06,08,29,16.90
2010,07,06,08,30,17.00
2010,07,06,08,31,17.00
2010,07,06,08,32,17.10
2010,07,06,08,33,17.20
2010,07,06,08,34,17.30
2010,07,06,08,35,17.20
2010,07,06,08,36,17.20
2010,07,06,08,37,17.20
2010,07,06,08,38,17.20
2010,07,06,08,39,17.20
2010,07,06,08,40,17.20
2010,07,06,08,41,17.20
2010,07,06,08,42,17.20
2010,07,06,08,43,17.10
2010,07,06,08,44,17.10
2010,07,06,08,45,17.00
2010,07,06,08,46,17.00
2010,07,06,08,47,17.10
2010,07,06,08,48,17.10
2010,07,06,08,49,17.10
2010,07,06,08,50,17.20
2010,07,06,08,51,17.20
2010,07,06,08,52,17.20
2010,07,06,08,53,17.30
2010,07,06,08,54,17.30
2010,07,06,08,55,17.30
2010,07,06,08,56,17.30
2010,07,06,08,57,17.30
2010,07,06,08,58,17.20
2010,07,06,08,59,17.20
2010,07,06,09,00,17.20
2010,07,06,09,01,17.20
2010,07,06,09,02,17.20
2010,07,06,09,03,17.20
2010,07,06,09,04,17.30
2010,07,06,09,05,17.30
2010,07,06,09,06,17.40
2010,07,06,09,07,17.40
2010,07,06,09,08,17.40
2010,07,06,09,09,17.50
2010,07,06,09,10,17.50
2010,07,06,09,11,17.50
2010,07,06,09,12,17.50
2010,07,06,09,13,17.50
2010,07,06,09,14,17.50
2010,07,06,09,15,17.50
2010,07,06,09,16,17.50
2010,07,06,09,17,17.50
2010,07,06,09,18,17.40
2010,07,06,09,19,17.40
2010,07,06,09,20,17.30
2010,07,06,09,21,17.30
2010,07,06,09,22,17.30
2010,07,06,09,23,17.30
2010,07,06,09,24,17.30
2010,07,06,09,25,17.30
2010,07,06,09,26,17.30
2010,07,06,09,27,17.30
2010,07,06,09,28,17.40
2010,07,06,09,29,17.50
2010,07,06,09,30,17.50
2010,07,06,09,31,17.50
2010,07,06,09,32,17.60
2010,07,06,09,33,17.70
2010,07,06,09,34,17.70
2010,07,06,09,35,17.80
2010,07,06,09,36,17.90
2010,07,06,09,37,18.00
2010,07,06,09,38,18.10
2010,07,06,09,39,18.20
2010,07,06,09,40,18.20
2010,07,06,09,41,18.20
2010,07,06,09,42,18.20
2010,07,06,09,43,18.30
2010,07,06,09,44,18.40
2010,07,06,09,45,18.40
2010,07,06,09,46,18.40
2010,07,06,09,47,18.40
2010,07,06,09,48,18.40
2010,07,06,09,49,18.40
2010,07,06,09,50,18.40
2010,07,06,09,51,18.50
2010,07,06,09,52,18.50
2010,07,06,09,53,18.50
2010,07,06,09,54,18.50
2010,07,06,09,55,18.50
2010,07,06,09,56,18.50
2010,07,06,09,57,18.50
2010,07,06,09,58,18.50
2010,07,06,09,59,18.50
2010,07,06,10,00,18.50
2010,07,06,10,01,18.40
2010,07,06,10,02,18.30
2010,07,06,10,03,18.30
2010,07,06,10,04,18.40
2010,07,06,10,05,18.40
2010,07,06,10,06,18.40
2010,07,06,10,07,18.40
2010,07,06,10,08,18.40
2010,07,06,10,09,18.40
2010,07,06,10,10,18.40
2010,07,06,10,11,18.50
2010,07,06,10,12,18.50
2010,07,06,10,13,18.60
2010,07,06,10,14,18.60
2010,07,06,10,15,18.40
2010,07,06,10,16,18.30
2010,07,06,10,17,18.30
2010,07,06,10,18,18.30
2010,07,06,10,19,18.30
2010,07,06,10,20,18.40
2010,07,06,10,21,18.50
2010,07,06,10,22,18.60
2010,07,06,10,23,18.70
2010,07,06,10,24,18.80
2010,07,06,10,25,18.90
2010,07,06,10,26,18.80
2010,07,06,10,27,18.80
2010,07,06,10,28,18.80
2010,07,06,10,29,18.70
2010,07,06,10,30,18.60
2010,07,06,10,31,18.60
2010,07,06,10,32,18.60
2010,07,06,10,33,18.70
2010,07,06,10,34,18.70
2010,07,06,10,35,18.80
2010,07,06,10,36,18.80
2010,07,06,10,37,18.90
2010,07,06,10,38,18.90
2010,07,06,10,39,18.90
2010,07,06,10,40,18.90
2010,07,06,10,41,18.70
2010,07,06,10,42,18.50
2010,07,06,10,43,18.40
2010,07,06,10,44,18.50
2010,07,06,10,45,18.50
2010,07,06,10,46,18.60
2010,07,06,10,47,18.60
2010,07,06,10,48,18.60
2010,07,06,10,49,18.60
2010,07,06,10,50,18.60
2010,07,06,10,51,18.60
2010,07,06,10,52,18.70
2010,07,06,10,53,18.80
2010,07,06,10,54,18.80
2010,07,06,10,55,18.80
2010,07,06,10,56,18.90
2010,07,06,10,57,18.90
2010,07,06,10,58,18.90
2010,07,06,10,59,18.90
2010,07,06,11,00,18.90
2010,07,06,11,01,18.90
2010,07,06,11,02,19.00
2010,07,06,11,03,19.10
2010,07,06,11,04,19.10
2010,07,06,11,05,19.10
2010,07,06,11,06,19.10
2010,07,06,11,07,19.10
2010,07,06,11,08,19.10
2010,07,06,11,09,19.10
2010,07,06,11,10,19.20
2010,07,06,11,11,19.20
2010,07,06,11,12,19.30
2010,07,06,11,13,19.30
2010,07,06,11,14,19.30
2010,07,06,11,15,19.40
2010,07,06,11,16,19.40
2010,07,06,11,17,19.40
2010,07,06,11,18,19.30
2010,07,06,11,19,19.10
2010,07,06,11,20,19.00
2010,07,06,11,21,18.90
2010,07,06,11,22,18.90
2010,07,06,11,23,18.90
2010,07,06,11,24,18.90
2010,07,06,11,25,18.90
2010,07,06,11,26,18.90
2010,07,06,11,27,18.90
2010,07,06,11,28,18.90
2010,07,06,11,29,18.80
2010,07,06,11,30,18.80
2010,07,06,11,31,18.70
2010,07,06,11,32,18.60
2010,07,06,11,33,18.70
2010,07,06,11,34,18.60
2010,07,06,11,35,18.50
2010,07,06,11,36,18.50
2010,07,06,11,37,18.30
2010,07,06,11,38,18.10
2010,07,06,11,39,18.10
2010,07,06,11,40,18.20
2010,07,06,11,41,18.20
2010,07,06,11,42,18.40
2010,07,06,11,43,18.40
2010,07,06,11,44,18.40
2010,07,06,11,45,18.30
2010,07,06,11,46,18.30
2010,07,06,11,47,18.40
2010,07,06,11,48,18.40
2010,07,06,11,49,18.50
2010,07,06,11,50,18.60
2010,07,06,11,51,18.60
2010,07,06,11,52,18.50
2010,07,06,11,53,18.40
2010,07,06,11,54,18.40
2010,07,06,11,55,18.50
2010,07,06,11,56,18.50
2010,07,06,11,57,18.50
2010,07,06,11,58,18.50
2010,07,06,11,59,18.40
2010,07,06,12,00,18.20
2010,07,06,12,01,18.20
2010,07,06,12,02,18.20
2010,07,06,12,03,18.20
2010,07,06,12,04,18.20
2010,07,06,12,05,18.20
2010,07,06,12,06,18.20
2010,07,06,12,07,18.20
2010,07,06,12,08,18.30
2010,07,06,12,09,18.40
2010,07,06,12,10,18.50
2010,07,06,12,11,18.80
2010,07,06,12,12,18.80
2010,07,06,12,13,18.80
2010,07,06,12,14,18.80
2010,07,06,12,15,18.90
2010,07,06,12,16,18.90
2010,07,06,12,17,18.90
2010,07,06,12,18,18.90
2010,07,06,12,19,18.80
2010,07,06,12,20,18.80
2010,07,06,12,21,18.70
2010,07,06,12,22,18.70
2010,07,06,12,23,18.70
2010,07,06,12,24,18.60
2010,07,06,12,25,18.50
2010,07,06,12,26,18.50
2010,07,06,12,27,18.40
2010,07,06,12,28,18.40
2010,07,06,12,29,18.40
2010,07,06,12,30,18.40
2010,07,06,12,31,18.50
2010,07,06,12,32,18.60
2010,07,06,12,33,18.60
2010,07,06,12,34,18.60
2010,07,06,12,35,18.60
2010,07,06,12,36,18.60
2010,07,06,12,37,18.60
2010,07,06,12,38,18.60
2010,07,06,12,39,18.50
2010,07,06,12,40,18.40
2010,07,06,12,41,18.60
2010,07,06,12,42,18.60
2010,07,06,12,43,18.60
2010,07,06,12,44,18.50
2010,07,06,12,45,18.30
2010,07,06,12,46,18.20
2010,07,06,12,47,18.20
2010,07,06,12,48,18.20
2010,07,06,12,49,18.20
2010,07,06,12,50,18.30
2010,07,06,12,51,18.20
2010,07,06,12,52,18.00
2010,07,06,12,53,17.80
2010,07,06,12,54,17.80
2010,07,06,12,55,17.90
2010,07,06,12,56,17.90
2010,07,06,12,57,17.90
2010,07,06,12,58,17.90
2010,07,06,12,59,17.90
2010,07,06,13,00,17.90
2010,07,06,13,01,17.90
2010,07,06,13,02,18.10
2010,07,06,13,03,18.20
2010,07,06,13,04,18.20
2010,07,06,13,05,18.30
2010,07,06,13,06,18.30
2010,07,06,13,07,18.30
2010,07,06,13,08,18.20
2010,07,06,13,09,18.30
2010,07,06,13,10,18.30
2010,07,06,13,11,18.30
2010,07,06,13,12,18.30
2010,07,06,13,13,18.30
2010,07,06,13,14,18.40
2010,07,06,13,15,18.50
2010,07,06,13,16,18.50
2010,07,06,13,17,18.60
2010,07,06,13,18,18.60
2010,07,06,13,19,18.70
2010,07,06,13,20,18.80
2010,07,06,13,21,18.80
2010,07,06,13,22,18.80
2010,07,06,13,23,18.80
2010,07,06,13,24,18.80
2010,07,06,13,25,18.80
2010,07,06,13,26,18.90
2010,07,06,13,27,18.90
2010,07,06,13,28,18.90
2010,07,06,13,29,18.90
2010,07,06,13,30,18.90
2010,07,06,13,31,18.90
2010,07,06,13,32,18.90
2010,07,06,13,33,18.80
2010,07,06,13,34,18.80
2010,07,06,13,35,18.80
2010,07,06,13,36,18.80
2010,07,06,13,37,18.80
2010,07,06,13,38,18.80
2010,07,06,13,39,18.70
2010,07,06,13,40,18.70
2010,07,06,13,41,18.90
2010,07,06,13,42,18.90
2010,07,06,13,43,18.90
2010,07,06,13,44,18.90
2010,07,06,13,45,18.90
2010,07,06,13,46,19.00
2010,07,06,13,47,19.10
2010,07,06,13,48,19.10
2010,07,06,13,49,19.10
2010,07,06,13,50,19.10
2010,07,06,13,51,19.20
2010,07,06,13,52,19.30
2010,07,06,13,53,19.40
2010,07,06,13,54,19.50
2010,07,06,13,55,19.60
2010,07,06,13,56,19.70
2010,07,06,13,57,19.80
2010,07,06,13,58,19.90
2010,07,06,13,59,20.00
2010,07,06,14,00,20.10
2010,07,06,14,01,20.10
2010,07,06,14,02,20.20
2010,07,06,14,03,20.20
2010,07,06,14,04,20.20
2010,07,06,14,05,20.20
2010,07,06,14,06,20.30
2010,07,06,14,07,20.30
2010,07,06,14,08,20.40
2010,07,06,14,09,20.50
2010,07,06,14,10,20.50
2010,07,06,14,11,20.50
2010,07,06,14,12,20.50
2010,07,06,14,13,20.50
2010,07,06,14,14,20.60
2010,07,06,14,15,20.60
2010,07,06,14,16,20.60
2010,07,06,14,17,20.70
2010,07,06,14,18,20.80
2010,07,06,14,19,20.90
2010,07,06,14,20,21.00
2010,07,06,14,21,21.00
2010,07,06,14,22,20.80
2010,07,06,14,23,20.80
2010,07,06,14,24,20.70
2010,07,06,14,25,20.60
2010,07,06,14,26,20.50
2010,07,06,14,27,20.30
2010,07,06,14,28,20.20
2010,07,06,14,29,20.10
2010,07,06,14,30,20.10
2010,07,06,14,31,20.00
2010,07,06,14,32,19.90
2010,07,06,14,33,19.90
2010,07,06,14,34,19.90
2010,07,06,14,35,19.90
2010,07,06,14,36,19.90
2010,07,06,14,37,20.00
2010,07,06,14,38,20.20
2010,07,06,14,39,20.20
2010,07,06,14,40,20.30
2010,07,06,14,41,20.40
2010,07,06,14,42,20.50
2010,07,06,14,43,20.60
2010,07,06,14,44,20.70
2010,07,06,14,45,20.80
2010,07,06,14,46,20.90
2010,07,06,14,47,20.90
2010,07,06,14,48,20.90
2010,07,06,14,49,21.00
2010,07,06,14,50,21.00
2010,07,06,14,51,21.00
2010,07,06,14,52,21.10
2010,07,06,14,53,21.10
2010,07,06,14,54,21.10
2010,07,06,14,55,21.10
2010,07,06,14,56,21.10
2010,07,06,14,57,21.20
2010,07,06,14,58,21.20
2010,07,06,14,59,21.20
2010,07,06,15,00,21.30
2010,07,06,15,01,21.30
2010,07,06,15,02,21.30
2010,07,06,15,03,21.30
2010,07,06,15,04,21.30
2010,07,06,15,05,21.30
2010,07,06,15,06,21.30
2010,07,06,15,07,21.40
2010,07,06,15,08,21.50
2010,07,06,15,09,21.60
2010,07,06,15,10,21.60
2010,07,06,15,11,21.60
2010,07,06,15,12,21.60
2010,07,06,15,13,21.70
2010,07,06,15,14,21.80
2010,07,06,15,15,21.90
2010,07,06,15,16,22.00
2010,07,06,15,17,22.10
2010,07,06,15,18,22.10
2010,07,06,15,19,22.10
2010,07,06,15,20,22.20
2010,07,06,15,21,22.10
2010,07,06,15,22,22.20
2010,07,06,15,23,22.20
2010,07,06,15,24,22.10
2010,07,06,15,25,22.00
2010,07,06,15,26,21.80
2010,07,06,15,27,21.70
2010,07,06,15,28,21.50
2010,07,06,15,29,21.40
2010,07,06,15,30,21.30
2010,07,06,15,31,21.30
2010,07,06,15,32,21.30
2010,07,06,15,33,21.30
2010,07,06,15,34,21.30
2010,07,06,15,35,21.40
2010,07,06,15,36,21.50
2010,07,06,15,37,21.60
2010,07,06,15,38,21.60
2010,07,06,15,39,21.60
2010,07,06,15,40,21.70
2010,07,06,15,41,21.80
2010,07,06,15,42,21.90
2010,07,06,15,43,21.90
2010,07,06,15,44,22.00
2010,07,06,15,45,22.00
2010,07,06,15,46,22.10
2010,07,06,15,47,22.20
2010,07,06,15,48,22.10
2010,07,06,15,49,22.10
2010,07,06,15,50,22.00
2010,07,06,15,51,21.90
2010,07,06,15,52,21.80
2010,07,06,15,53,21.80
2010,07,06,15,54,21.90
2010,07,06,15,55,21.90
2010,07,06,15,56,22.00
2010,07,06,15,57,22.10
2010,07,06,15,58,22.20
2010,07,06,15,59,22.30
2010,07,06,16,00,22.40
2010,07,06,16,01,22.50
2010,07,06,16,02,22.50
2010,07,06,16,03,22.60
2010,07,06,16,04,22.60
2010,07,06,16,05,22.70
2010,07,06,16,06,22.80
2010,07,06,16,07,22.80
2010,07,06,16,08,22.80
2010,07,06,16,09,22.70
2010,07,06,16,10,22.50
2010,07,06,16,11,22.30
2010,07,06,16,12,22.20
2010,07,06,16,13,22.00
2010,07,06,16,14,21.90
2010,07,06,16,15,21.90
2010,07,06,16,16,21.90
2010,07,06,16,17,21.90
2010,07,06,16,18,21.80
2010,07,06,16,19,21.70
2010,07,06,16,20,21.60
2010,07,06,16,21,21.50
2010,07,06,16,22,21.40
2010,07,06,16,23,21.30
2010,07,06,16,24,21.10
2010,07,06,16,25,21.00
2010,07,06,16,26,20.80
2010,07,06,16,27,20.70
2010,07,06,16,28,20.70
2010,07,06,16,29,20.70
2010,07,06,16,30,20.80
2010,07,06,16,31,21.00
2010,07,06,16,32,21.00
2010,07,06,16,33,21.20
2010,07,06,16,34,21.20
2010,07,06,16,35,21.30
2010,07,06,16,36,21.30
2010,07,06,16,37,21.30
2010,07,06,16,38,21.40
2010,07,06,16,39,21.40
2010,07,06,16,40,21.50
2010,07,06,16,41,21.60
2010,07,06,16,42,21.60
2010,07,06,16,43,21.60
2010,07,06,16,44,21.60
2010,07,06,16,45,21.60
2010,07,06,16,46,21.70
2010,07,06,16,47,21.80
2010,07,06,16,48,21.80
2010,07,06,16,49,21.90
2010,07,06,16,50,21.90
2010,07,06,16,51,21.80
2010,07,06,16,52,21.80
2010,07,06,16,53,21.90
2010,07,06,16,54,21.90
2010,07,06,16,55,21.80
2010,07,06,16,56,21.80
2010,07,06,16,57,21.70
2010,07,06,16,58,21.70
2010,07,06,16,59,21.60
2010,07,06,17,00,21.60
2010,07,06,17,01,21.50
2010,07,06,17,02,21.30
2010,07,06,17,03,21.20
2010,07,06,17,04,21.10
2010,07,06,17,05,21.10
2010,07,06,17,06,21.00
2010,07,06,17,07,21.00
2010,07,06,17,08,21.00
2010,07,06,17,09,21.00
2010,07,06,17,10,21.10
2010,07,06,17,11,21.20
2010,07,06,17,12,21.40
2010,07,06,17,13,21.50
2010,07,06,17,14,21.60
2010,07,06,17,15,21.80
2010,07,06,17,16,21.90
2010,07,06,17,17,22.00
2010,07,06,17,18,22.10
2010,07,06,17,19,22.30